Baltimore, MD

5:36 PM EST on November 15, 2019 (GMT -0500)
Baltimore-Washington International

Weather History for KBWI - October, 2019

Change the Weather History Date:

Sunday, October 20, 2019

  Actual Average Record
Temperature  
Mean Temperature 53 °F 55 °F  
Max Temperature 57 °F 66 °F 87 °F (1969)
Min Temperature 49 °F 44 °F 28 °F (1972)
Degree Days  
Heating Degree Days 12 11  
Month to date heating degree days 85 159  
Since 1 July heating degree days 88 212  
Cooling Degree Days 0 0  
Month to date cooling degree days 58 15  
Year to date cooling degree days 1756 1160  
Growing Degree Days 3 (Base 50)    
Moisture  
Dew Point 53 °F    
Average Humidity 92    
Maximum Humidity 96    
Minimum Humidity 83    
Precipitation  
Precipitation 1.35 in 0.10 in 2.69 in (1873)
Month to date precipitation 2.89 2.17  
Year to date precipitation 30.14 34.05  
Snow  
Snow 0.00 in 0.00 in 0.90 in (1940)
Month to date snowfall 0.0 0.0  
Since 1 July snowfall 0.0 0.0  
Snow Depth 0.00 in    
Sea Level Pressure  
Sea Level Pressure 29.93 in    
Wind  
Wind Speed 6 mph ()    
Max Wind Speed 20 mph    
Max Gust Speed 26 mph    
Visibility 4.8 miles    
Events Rain    
T = Trace of Precipitation, MM = Missing Value Source: Averaged Metar Reports

Daily Weather History Graph

Daily Weather History Graph

Search for Another Location

Airport or City:

Astronomy

Oct. 20, 2019 Rise Set
Actual Time 7:21 AM EDT 6:21 PM EDT
Civil Twilight 6:54 AM EDT 6:48 PM EDT
Nautical Twilight 6:22 AM EDT 7:19 PM EDT
Astronomical Twilight 5:51 AM EDT 7:50 PM EDT
Moon 11:29 PM EDT (10/20) 1:45 PM EDT (10/20)
Length of Visible Light 11h 54m
Length of Day
10h 59m
Waning Gibbous, 59% of the Moon is Illuminated
Oct 20
Waning Gibbous
Oct 21
Last Quarter
Oct 27
New
Nov 4
First Quarter
Nov 12
Full

Hourly Weather History & Observations

Time (EDT) Temp. Dew Point Humidity Pressure Visibility Wind Dir Wind Speed Gust Speed Precip Events Conditions
12:54 AM 51.1 °F 46.9 °F 86% 30.01 in 10.0 mi Calm Calm - N/A   Mostly Cloudy
1:54 AM 51.1 °F 48.0 °F 89% 30.00 in 10.0 mi Calm Calm - N/A   Mostly Cloudy
2:54 AM 53.1 °F 48.0 °F 83% 29.98 in 10.0 mi ESE 3.5 mph - N/A   Overcast
3:54 AM 52.0 °F 48.9 °F 89% 29.96 in 10.0 mi Calm Calm - N/A   Overcast
4:54 AM 53.1 °F 50.0 °F 89% 29.95 in 10.0 mi Calm Calm - N/A   Overcast
5:54 AM 54.0 °F 51.1 °F 90% 29.96 in 9.0 mi Calm Calm - 0.00 in Rain Light Rain
6:54 AM 55.9 °F 53.1 °F 90% 29.98 in 4.0 mi East 4.6 mph - 0.09 in Rain Rain
7:47 AM 55.9 °F 53.1 °F 90% 29.98 in 5.0 mi Calm Calm - 0.06 in Rain Light Rain
7:54 AM 55.0 °F 54.0 °F 96% 29.97 in 5.0 mi NNE 4.6 mph - 0.06 in Rain Light Rain
8:24 AM 55.0 °F 53.1 °F 93% 29.97 in 4.0 mi Variable 6.9 mph - 0.02 in Rain Light Rain
8:41 AM 55.9 °F 54.0 °F 93% 29.98 in 3.0 mi NE 8.1 mph - 0.03 in Rain Light Rain
8:54 AM 55.9 °F 54.0 °F 93% 29.98 in 3.0 mi ENE 10.4 mph - 0.04 in Rain Light Rain
9:02 AM 55.9 °F 54.0 °F 93% 29.98 in 3.0 mi ENE 9.2 mph - 0.00 in Rain Light Rain
9:39 AM 55.9 °F 54.0 °F 93% 29.98 in 2.5 mi ENE 9.2 mph - 0.02 in Rain Light Rain
9:54 AM 55.9 °F 54.0 °F 93% 29.99 in 2.0 mi East 6.9 mph - 0.04 in Rain Rain
10:04 AM 55.0 °F 54.0 °F 96% 29.99 in 1.5 mi ENE 8.1 mph - 0.04 in Rain Heavy Rain
10:54 AM 55.0 °F 53.1 °F 93% 29.98 in 2.0 mi ENE 10.4 mph - 0.19 in Rain Rain
11:27 AM 55.0 °F 53.1 °F 93% 29.97 in 3.0 mi ENE 12.7 mph - 0.05 in Rain Light Rain
11:54 AM 55.0 °F 54.0 °F 96% 29.96 in 2.5 mi NE 10.4 mph - 0.10 in Rain Rain
12:20 PM 55.9 °F 54.0 °F 93% 29.94 in 2.5 mi NE 11.5 mph - 0.05 in Rain Light Rain
12:38 PM 55.9 °F 54.0 °F 93% 29.93 in 3.0 mi NE 12.7 mph 21.9 mph 0.07 in Rain Light Rain
12:54 PM 55.9 °F 54.0 °F 93% 29.92 in 2.5 mi NE 12.7 mph - 0.09 in Rain Light Rain
1:38 PM 55.9 °F 54.0 °F 93% 29.90 in 2.0 mi NE 16.1 mph - 0.09 in Rain Rain
1:54 PM 55.9 °F 54.0 °F 93% 29.88 in 2.0 mi NE 16.1 mph 23.0 mph 0.15 in Rain Rain
1:57 PM 55.9 °F 54.0 °F 93% 29.88 in 1.8 mi NE 15.0 mph - 0.02 in Rain Heavy Rain
2:08 PM 55.9 °F 54.0 °F 93% 29.88 in 2.5 mi NE 17.3 mph - 0.05 in Rain Rain
2:26 PM 55.9 °F 54.0 °F 93% 29.87 in 2.0 mi NE 13.8 mph - 0.10 in Rain Rain
2:54 PM 57.0 °F 55.0 °F 93% 29.86 in 2.0 mi NE 13.8 mph - 0.21 in Rain Rain
3:36 PM 57.0 °F 55.0 °F 93% 29.86 in 2.0 mi NNE 16.1 mph - 0.13 in Rain Light Rain
3:54 PM 57.0 °F 55.0 °F 93% 29.86 in 3.0 mi NNE 12.7 mph 19.6 mph 0.15 in Rain Light Rain
4:54 PM 57.0 °F 55.0 °F 93% 29.88 in 1.5 mi NNE 10.4 mph - 0.13 in Rain Rain
5:16 PM 57.0 °F 55.0 °F 93% 29.88 in 2.0 mi NNE 10.4 mph - 0.05 in Rain Light Rain
5:40 PM 57.0 °F 55.0 °F 93% 29.88 in 3.0 mi NNE 12.7 mph 19.6 mph 0.07 in Rain Light Rain
5:47 PM 57.0 °F 55.0 °F 93% 29.88 in 4.0 mi North 11.5 mph - 0.07 in Rain Light Rain
5:54 PM 57.0 °F 55.0 °F 93% 29.88 in 5.0 mi NNE 9.2 mph - 0.08 in Rain Light Rain
6:54 PM 55.9 °F 54.0 °F 93% 29.90 in 8.0 mi North 6.9 mph - 0.01 in   Light Drizzle
7:24 PM 55.9 °F 54.0 °F 93% 29.91 in 10.0 mi North 8.1 mph - 0.00 in   Overcast
7:54 PM 55.9 °F 54.0 °F 93% 29.91 in 4.0 mi NNE 8.1 mph - 0.00 in Rain Light Rain
8:15 PM 55.0 °F 54.0 °F 96% 29.92 in 5.0 mi North 8.1 mph - 0.01 in Rain Light Rain
8:54 PM 55.9 °F 53.1 °F 90% 29.93 in 10.0 mi North 9.2 mph - 0.01 in   Overcast
9:54 PM 55.0 °F 53.1 °F 93% 29.95 in 10.0 mi North 4.6 mph - N/A   Overcast
10:54 PM 55.0 °F 53.1 °F 93% 29.96 in 10.0 mi NNW 4.6 mph - N/A   Overcast
11:54 PM 55.0 °F 52.0 °F 89% 29.96 in 10.0 mi NW 5.8 mph - N/A   Overcast